Regional Weather Roundup
Issued by NWS

Home | Current Version | Previous Version | Graphics & Text | Print | Product List | Glossary On
Versions: 1 2 3 4 5 6 7 8 9 10 11 12 13 14 15 16 17 18 19 20 21 22 23 24 25 26 27 28 29 30 31 32 33 34 35 36 37 38 39 40 41 42 43 44 45 46 47 48 49 50
000
ASUS45 KCYS 200210
RWRWY

WYOMING REGIONAL WEATHER ROUNDUP
NATIONAL WEATHER SERVICE CHEYENNE WY
800 PM MDT FRI SEP 19 2014

NOTE:  "FAIR" INDICATES FEW OR NO CLOUDS BELOW 12,000 FEET
WITH NO SIGNIFICANT WEATHER AND/OR OBSTRUCTIONS TO VISIBILITY.

WYZ001-200300-
YELLOWSTONE NATIONAL PARK

CITY           SKY/WX    TMP DP  RH WIND       PRES   REMARKS
LK YELLOWSTONE   N/A     48  43  82 CALM      30.27R
W YELLOWSTONE  NOT AVBL

$$
WYZ002>013-054>058-071-098>099-200300-
NORTHERN WYOMING

CITY           SKY/WX    TMP DP  RH WIND       PRES   REMARKS
JACKSON        CLEAR     59  39  47 W9        30.19R
CODY             N/A    N/A N/A N/A MISG        N/A
GREYBULL       CLEAR     73  44  35 NW14      29.94R
WORLAND        CLEAR     65  47  52 E3        29.95R
SHERIDAN       PTCLDY    62  48  60 W8        30.00R
BUFFALO        MOCLDY    63  45  51 NW14      30.05R
GILLETTE       CLEAR     63  47  55 N8        29.99R
HULETT         CLOUDY    66  46  48 MISG      30.01
NEWCASTLE      FAIR      66  41  39 N5        29.96

$$
WYZ014>020-022>026-101>103-200300-
CENTRAL WYOMING

CITY           SKY/WX    TMP DP  RH WIND       PRES   REMARKS
BIG PINEY      CLEAR     57  38  48 N10       30.22R
PINEDALE       CLEAR     55  37  50 W8        30.22R
DUBOIS         FAIR      59  32  36 NW9       30.20R
LANDER         CLEAR     70  37  29 NW9       30.04R
RIVERTON       CLEAR     69  36  29 NW14      30.04R
CASPER         CLEAR     62  33  33 N13       30.02R
DOUGLAS        CLEAR     71  39  31 N10       30.00R

$$
WYZ021-027>030-104>119-200300-
SOUTHERN WYOMING

CITY           SKY/WX    TMP DP  RH WIND       PRES   REMARKS
EVANSTON       CLEAR     63  39  41 NW9       30.22R
KEMMERER       CLEAR     59  36  41 NW7       30.24R
FORT BRIDGER   FAIR      65  40  40 N6        30.24R
ROCK SPRINGS   CLEAR     66  36  32 W13       30.17R
DIXON          MOCLDY    60  49  67 CALM      30.17R
RAWLINS        CLEAR     69  34  27 W14       30.15R
SARATOGA       FAIR      63  41  45 SW10      30.17R
LARAMIE        PTCLDY    62  39  42 W8        30.16R
CHEYENNE       MOCLDY    73  40  30 NW3       30.08R
TORRINGTON     PTCLDY    69  48  47 NE12      29.91R
PINE BLUFFS    MOCLDY    63  55  77 CALM      30.01S

$$



USA.gov is the U.S. government's official web portal to all federal, state and local government web resources and services.